Location: Unspecified
(0.0000°N, 0.0000°E)
Time: 13:40:00
(UTC+00:00)

Vanguard 2 Rocket - Pass Details

Date: 21 November 2019
Orbit: 554 x 3326 km, 32.9° (Epoch: 08 December)

Event Time Altitude Azimuth Distance (km) Brightness Sun altitude
Rises 11:52:55 0° 260° (W) 6,598 11.4 70.0°
Reaches altitude 10° 11:58:31 10° 248° (WSW) 5,908 11.3 69.8°
Maximum altitude 12:12:53 25° 200° (SSW) 5,107 11.5 69.0°
Drops below altitude 10° 12:27:34 10° 151° (SSE) 5,966 11.4 67.6°
Sets 12:33:23 0° 138° (SE) 6,664 11.4 66.9°
